Hourly Data Report for July 22, 2021

CAMBRIDGE BAY A
NUNAVUT
Current Station Operator: NAVCAN

69°06'29.000" N
105°08'14.000" W
31.10 m
2400601
71925
YCB

Download Data

Hourly Data (July 2021)
Hourly Data Report for July 22, 2021
TIME
LST
Temp Definition
°C
Dew Point Definition
°C
Rel Hum Definition
%
Precip. Amount Definition
mm

Wind Dir Definition
10's deg

Wind Spd Definition
km/h
Visibility Definition
km
Stn Press Definition
kPa
Hmdx Definition


Wind Chill Definition


Weather Definition


00:00 9.3 6.3 81   26 7 24.1 100.08     LegendNANA
01:00 9.2 6.3 82   23 7 24.1 100.05     LegendNANA
02:00 9.5 6.3 80   24 7 24.1 100.02     Mostly Cloudy
03:00 8.5 6.0 84   36 2 24.1 99.98     LegendNANA
04:00 8.4 6.2 86   24 10 24.1 99.96     LegendNANA
05:00 11.2 8.1 81   1 7 24.1 99.95     Mainly Clear
06:00 13.1 8.7 75   6 5 24.1 99.91     LegendNANA
07:00 15.3 9.2 66   36 3 24.1 99.88     LegendNANA
08:00 12.6 8.4 75   3 22 24.1 99.86     Mostly Cloudy
09:00 12.0 8.1 77   3 25 24.1 99.88     LegendNANA
10:00 13.6 9.2 75   4 27 24.1 99.87     LegendNANA
11:00 13.3 9.0 75   3 21 24.1 99.87     Cloudy
12:00 13.3 8.9 74   8 23 24.1 99.86     LegendNANA
13:00 12.6 8.3 75   7 25 24.1 99.88     LegendNANA
14:00 13.1 8.5 73   7 31 24.1 99.87     Mostly Cloudy
15:00 12.3 7.8 74   7 33 24.1 99.85     LegendNANA
16:00 11.6 7.0 73   7 34 24.1 99.85     LegendNANA
17:00 10.7 6.4 74   7 31 24.1 99.91     Mostly Cloudy
18:00 9.1 5.1 76   7 37 24.1 99.91     LegendNANA
19:00 7.8 3.5 74   5 39 24.1 99.99     LegendNANA
20:00 6.5 2.6 76   6 40 24.1 99.92     Mostly Cloudy
21:00 5.7 2.3 79   5 39 24.1 99.96     LegendNANA
22:00 5.0 2.2 82   5 39 24.1 99.97     LegendNANA
23:00 5.0 2.3 83   5 40 24.1 99.96     Mostly Cloudy

Notes on Data Quality.

Legend

  • E = Estimated
  • M = Missing
  • NA = Not Available*
  • [empty] = Indicates an unobserved value
Date modified: